Tracking 29777 objects as of 5-Oct-2024
HD Live streaming from Space Station
objects crossing your sky now

SJ 16-02 DEB

Track SJ 16-02 DEB now!
10-day predictions


NORAD ID: 43428
Int'l Code: 2016-043C
Perigee: 599.6 km
Apogee: 968.1 km
Inclination: 75.0 °
Period: 100.4 minutes
Semi major axis: 7154 km
RCS: Unknown
Launch date: June 29, 2016
Source: People's Republic of China (PRC)
Launch site: Jiuquan Satellite Launch Center, China (JSC)

Note: This is SATELLITE DEBRIS
Your satellite tracking list
Your tracking list is empty




NASA's NSSDC Master Catalog

Two Line Element Set (TLE):
1 43428U 16043C   24277.67497785  .00014380  00000-0  35036-2 0  9995
2 43428  74.9645 146.1095 0257571  34.4197 327.3343 14.34504796429686
Source of the keplerian elements: AFSPC